[[{"header":{"parameterUnit":"m.s-1","parameterCategory":1,"la1":30.2991,"la2":30.254,"lo1":-89.0895,"lo2":-89.0444,"dy":0.0017,"dx":0.0017,"nx":28,"ny":28,"refTime":"2025-12-20T09:00:00:Z","depth":0,"parameterNumber":2,"parameterNumberName":"U-component_of_WINDS"},"data":[0,0,0,0,0,0,0,0,0,0,0,0,0,0,0,0,0,0,0,0,0,0,0,0,0,0,0,0,0,0,0,0,0,0,0,0,0,0,0,0,0,0,0,0,0,0,0,0,0,0,0,0,0,0,0,0,0,0,-2.0948,-2.0949,0,-2.1017,-2.1018,-2.1019,-2.1023,-2.1022,-2.1021,-2.1021,-2.1092,-2.1095,-2.1097,0,0,0,0,0,0,0,0,0,0,0,0,0,-2.082,-2.0822,-2.0948,-2.0949,-2.095,-2.1017,-2.1018,-2.1019,-2.1023,-2.1022,-2.1021,-2.102,-2.1091,-2.1094,-2.1097,0,0,0,0,0,0,0,0,0,0,0,0,0,-2.0881,-2.0823,-2.0948,-2.096,-2.0962,-2.1017,-2.1018,-2.1019,-2.1023,-2.1022,-2.1021,-2.102,-2.109,-2.1094,-2.1098,-2.1146,0,0,-2.111,-2.1112,0,0,0,0,0,0,0,0,-2.0877,-2.0885,-2.0957,-2.0959,-2.0961,-2.101,-2.0999,-2.1062,-2.1024,-2.1,-2.1021,-2.1019,-2.1066,-2.1072,-2.1087,-2.1149,-2.1152,-2.111,-2.1113,-2.1114,-2.1115,0,0,0,0,0,0,0,-2.0873,-2.0883,-2.0975,-2.0958,-2.0961,-2.0962,-2.0969,-2.1011,-2.1039,-2.1002,-2.1002,-2.101,-2.1067,-2.1083,-2.1089,-2.1153,-2.111,-2.1114,-2.1116,-2.1118,-2.1256,-2.1257,0,0,0,0,0,0,-2.0866,-2.0879,-2.0973,-2.0978,-2.0916,-2.0965,-2.0973,-2.0996,-2.1038,-2.1044,-2.1011,-2.101,-2.1077,-2.1084,-2.1091,-2.1149,-2.1114,-2.1118,-2.112,-2.1255,-2.1256,-2.1258,0,0,0,0,0,0,-2.0864,-2.0875,-2.097,-2.0928,-2.0941,-2.0969,-2.0994,-2.0998,-2.1014,-2.1045,-2.105,-2.1023,-2.1077,-2.1086,-2.1132,-2.1151,-2.112,-2.1123,-2.1253,-2.1255,-2.1257,-2.1265,0,0,0,0,0,0,-2.086,-2.0874,-2.0892,-2.0929,-2.0943,-2.101,-2.0995,-2.1,-2.1021,-2.102,-2.1058,-2.1063,-2.1076,-2.1126,-2.1136,-2.1156,-2.1126,-2.1252,-2.1254,-2.1256,-2.1263,-2.1267,-2.127,0,0,0,0,0,-2.0855,-2.0892,-2.0893,-2.0905,-2.0967,-2.1011,-2.1019,-2.1033,-2.1023,-2.1041,-2.1061,-2.1062,-2.1148,-2.113,-2.1142,-2.1164,-2.125,-2.1253,-2.1256,-2.1261,-2.1266,-2.127,0,0,0,0,0,0,-2.0858,-2.0897,-2.0899,-2.0949,-2.0976,-2.1011,-2.1035,-2.1038,-2.107,-2.1068,-2.1084,-2.1093,-2.1138,-2.1156,-2.1136,-2.1211,-2.1198,-2.1203,-2.1198,-2.1203,-2.1206,-2.12,-2.113,0,0,0,0,0,-2.0865,-2.0897,-2.093,-2.0971,-2.0984,-2.1007,-2.1027,-2.1036,-2.1065,-2.1077,-2.11,-2.1129,-2.1162,-2.1184,-2.1216,-2.1266,-2.1273,-2.1286,-2.129,-2.1293,-2.1297,-2.1322,-2.1328,-2.1267,-2.1267,-2.1267,0,0,-2.0878,-2.0904,-2.0923,-2.0972,-2.0994,-2.1027,-2.1017,-2.1053,-2.1077,-2.1083,-2.1126,-2.1145,-2.1178,-2.1225,-2.1247,-2.1241,-2.1315,-2.1296,-2.1298,-2.1301,-2.1326,-2.1332,-2.1337,-2.1269,-2.1269,-2.1269,0,0,-2.0919,-2.0943,-2.0978,-2.1,-2.1034,-2.1049,-2.1058,-2.1092,-2.1104,-2.1149,-2.1153,-2.1182,-2.124,-2.1262,-2.1281,-2.133,-2.1331,-2.134,-2.1358,-2.1383,-2.1388,-2.1392,-2.1408,-2.1413,-2.1344,-2.1344,-2.1344,0,-2.0932,-2.0981,-2.0996,-2.1031,-2.1052,-2.1058,-2.1093,-2.1114,-2.1157,-2.1171,-2.1164,-2.1235,-2.1258,-2.131,-2.1321,-2.1337,-2.1347,-2.1335,-2.1386,-2.139,-2.1395,-2.141,-2.1416,-2.1345,-2.1345,-2.1345,-2.1345,0,-2.0994,-2.1028,-2.1053,-2.1093,-2.1117,-2.1152,-2.1172,-2.1194,-2.12,-2.1216,-2.126,-2.1288,-2.1325,-2.1339,-2.1346,-2.1391,-2.1386,-2.1383,-2.1369,-2.1401,-2.1415,-2.1421,-2.1346,-2.1346,-2.1346,-2.1345,0,0,-2.1039,-2.1086,-2.1094,-2.1112,-2.1149,-2.1175,-2.1211,-2.1247,-2.1264,-2.1294,-2.1323,-2.1371,-2.1367,-2.1389,-2.1399,-2.1421,-2.1455,-2.1414,-2.1415,-2.1419,-2.1505,-2.1506,-2.1512,-2.1457,-2.1458,-2.1459,-2.1501,0,-2.1082,-2.1144,-2.1158,-2.1211,-2.1242,-2.1248,-2.1278,-2.1304,-2.132,-2.1348,-2.1366,-2.1398,-2.1392,-2.1405,-2.1427,-2.1446,-2.1472,-2.1444,-2.1483,-2.1484,-2.1472,-2.152,-2.1522,-2.156,-2.1507,-2.1508,-2.1509,0,-2.1141,-2.1171,-2.1227,-2.1258,-2.1272,-2.1299,-2.1332,-2.1359,-2.1389,-2.1398,-2.1422,-2.1429,-2.1465,-2.1451,-2.15,-2.148,-2.1497,-2.1509,-2.1511,-2.1514,-2.1497,-2.1522,-2.1573,-2.1578,-2.1518,-2.1517,-2.1517,0,-2.1165,-2.1219,-2.1259,-2.1274,-2.1313,-2.1331,-2.1348,-2.1376,-2.1396,-2.1426,-2.1439,-2.1472,-2.149,-2.1516,-2.1532,-2.152,-2.1579,-2.1567,-2.1587,-2.1587,-2.1598,-2.1597,-2.1651,-2.1612,-2.1612,-2.1612,-2.1612,0,-2.1212,-2.1245,-2.127,-2.1295,-2.1332,-2.1348,-2.1384,-2.1402,-2.1426,-2.1454,-2.1462,-2.1487,-2.1507,-2.1536,-2.1548,-2.1586,-2.1595,-2.1603,-2.1606,-2.1601,-2.16,-2.1612,-2.1609,-2.1613,-2.1613,-2.1613,-2.1612,0,-2.1245,-2.1263,-2.1306,-2.1339,-2.1348,-2.1374,-2.1401,-2.1425,-2.1441,-2.1475,-2.1484,-2.1509,-2.1542,-2.1561,-2.1603,-2.1612,-2.1653,-2.1656,-2.1643,-2.1644,-2.1663,-2.166,-2.1724,-2.1733,-2.169,-2.1691,-2.1691,0,-2.1272,-2.1298,-2.1332,-2.1351,-2.1368,-2.1398,-2.1418,-2.1435,-2.1456,-2.149,-2.1509,-2.1543,-2.1571,-2.1624,-2.1646,-2.1678,-2.168,-2.17,-2.1685,-2.1679,-2.1678,-2.1675,-2.1677,-2.1702,-2.1703,-2.1703,-2.1703,0,-2.1318,-2.1326,-2.1354,-2.1386,-2.141,-2.1436,-2.1461,-2.1476,-2.1497,-2.152,-2.1553,-2.1575,-2.1618,-2.1651,-2.1684,-2.1702,-2.1706,-2.1708,-2.1714,-2.1709,-2.17,-2.1703,-2.1649,-2.1706,-2.1706,-2.1706,-2.1706,-2.1706,-2.1348,-2.137,-2.1398,-2.1429,-2.145,-2.1473,-2.1496,-2.1514,-2.1543,-2.1578,-2.1587,-2.1622,-2.165,-2.1695,-2.1713,-2.1741,-2.1737,-2.1746,-2.1748,-2.175,-2.175,-2.1697,-2.1747,-2.1747,-2.1747,-2.1747,-2.1747,0,-2.1393,-2.141,-2.1439,-2.1474,-2.1498,-2.15,-2.1528,-2.1548,-2.1579,-2.1604,-2.1631,-2.1669,-2.1701,-2.1725,-2.1758,-2.1775,-2.1777,-2.1783,-2.1781,-2.1784,-2.1752,-2.1743,-2.178,-2.178,-2.178,-2.178,-2.178,-2.178,-2.1419,-2.1456,-2.1467,-2.1514,-2.1532,-2.1566,-2.1581,-2.1603,-2.1623,-2.1665,-2.1691,-2.1706,-2.173,-2.1765,-2.1794,-2.18,-2.1811,-2.1815,-2.1821,-2.1791,-2.1787,-2.1784,-2.1775,-2.1818,-2.1818,-2.1851,-2.1851,-2.1852]},{"header":{"parameterUnit":"m.s-1","parameterCategory":1,"la1":30.2991,"la2":30.254,"lo1":-89.0895,"lo2":-89.0444,"dy":0.0017,"dx":0.0017,"nx":28,"ny":28,"refTime":"2025-12-20T09:00:00:Z","depth":0,"parameterNumber":3,"parameterNumberName":"V-component_of_WINDS"},"data":[0,0,0,0,0,0,0,0,0,0,0,0,0,0,0,0,0,0,0,0,0,0,0,0,0,0,0,0,0,0,0,0,0,0,0,0,0,0,0,0,0,0,0,0,0,0,0,0,0,0,0,0,0,0,0,0,0,0,2.3312,2.3312,0,2.3335,2.3335,2.3335,2.3336,2.3335,2.3335,2.3335,2.3358,2.3359,2.336,0,0,0,0,0,0,0,0,0,0,0,0,0,2.327,2.327,2.3312,2.3312,2.3312,2.3335,2.3335,2.3335,2.3336,2.3335,2.3335,2.3335,2.3358,2.3359,2.336,0,0,0,0,0,0,0,0,0,0,0,0,0,2.329,2.3271,2.3312,2.3315,2.3316,2.3335,2.3335,2.3335,2.3336,2.3335,2.3335,2.3335,2.3358,2.3359,2.336,2.3377,0,0,2.3364,2.3365,0,0,0,0,0,0,0,0,2.3289,2.3291,2.3314,2.3315,2.3316,2.3332,2.3329,2.3349,2.3336,2.3328,2.3335,2.3334,2.335,2.3352,2.3357,2.3378,2.3379,2.3364,2.3365,2.3366,2.3366,0,0,0,0,0,0,0,2.3287,2.329,2.3321,2.3315,2.3316,2.3316,2.3319,2.3333,2.3341,2.3329,2.3329,2.3332,2.335,2.3356,2.3358,2.3379,2.3364,2.3365,2.3366,2.3367,2.3418,2.3418,0,0,0,0,0,0,2.3285,2.3289,2.332,2.3321,2.3301,2.3317,2.332,2.3327,2.3341,2.3343,2.3332,2.3332,2.3354,2.3356,2.3358,2.338,2.3366,2.3367,2.3368,2.3417,2.3418,2.3418,0,0,0,0,0,0,2.3284,2.3288,2.3319,2.3305,2.3309,2.3318,2.3327,2.3328,2.3333,2.3343,2.3345,2.3336,2.3353,2.3356,2.3373,2.3381,2.3368,2.3369,2.3417,2.3417,2.3418,2.3424,0,0,0,0,0,0,2.3283,2.3287,2.3293,2.3306,2.331,2.3333,2.3327,2.3329,2.3336,2.3335,2.3348,2.3349,2.3353,2.3371,2.3374,2.3383,2.337,2.3416,2.3417,2.3418,2.3423,2.3425,2.3426,0,0,0,0,0,2.3281,2.3293,2.3294,2.3297,2.3318,2.3333,2.3336,2.334,2.3336,2.3343,2.335,2.3349,2.338,2.3373,2.3376,2.3385,2.3415,2.3417,2.3418,2.3422,2.3424,2.3426,0,0,0,0,0,0,2.3281,2.3295,2.3295,2.3312,2.3321,2.3333,2.3341,2.3342,2.3353,2.3352,2.3358,2.336,2.3377,2.3383,2.3374,2.3404,2.3397,2.3399,2.3399,2.3401,2.3403,2.3401,2.3371,0,0,0,0,0,2.3283,2.3295,2.3306,2.3319,2.3324,2.3332,2.3339,2.3342,2.3352,2.3356,2.3364,2.3374,2.3386,2.3394,2.3405,2.3424,2.3427,2.3432,2.3434,2.3435,2.3437,2.3449,2.3452,2.3423,2.3423,2.3423,0,0,2.3287,2.3296,2.3303,2.332,2.3327,2.334,2.3335,2.3348,2.3357,2.3358,2.3374,2.3381,2.3392,2.341,2.3418,2.3416,2.3446,2.3437,2.3438,2.3439,2.3451,2.3453,2.3456,2.3423,2.3423,2.3423,0,0,2.3301,2.3308,2.3321,2.333,2.3342,2.3348,2.3351,2.3363,2.3368,2.3384,2.3385,2.3397,2.3417,2.3426,2.3433,2.3453,2.3453,2.3457,2.3466,2.3477,2.348,2.3482,2.349,2.3493,2.3458,2.3458,2.3458,0,2.3304,2.3323,2.3328,2.3341,2.3349,2.3351,2.3365,2.3372,2.3388,2.3394,2.339,2.3418,2.3425,2.3446,2.3452,2.3457,2.3462,2.3455,2.3479,2.3481,2.3483,2.3491,2.3494,2.3459,2.3459,2.3459,2.3459,0,2.3327,2.334,2.3349,2.3365,2.3374,2.3387,2.3395,2.3403,2.3406,2.3412,2.343,2.344,2.3455,2.346,2.3462,2.3482,2.348,2.3478,2.3471,2.3486,2.3494,2.3497,2.3459,2.3459,2.3459,2.3459,0,0,2.334,2.336,2.3363,2.3371,2.3386,2.3397,2.3411,2.3426,2.3434,2.3445,2.3458,2.3476,2.3475,2.3483,2.3486,2.3497,2.3514,2.3493,2.3494,2.3498,2.3538,2.3541,2.3544,2.3514,2.3515,2.3515,2.3538,0,2.3356,2.3381,2.3388,2.3409,2.3422,2.3426,2.3438,2.3449,2.3456,2.3468,2.3476,2.3489,2.3486,2.3491,2.3501,2.3509,2.3522,2.3508,2.3527,2.3528,2.3525,2.3548,2.355,2.3571,2.3541,2.3541,2.3542,0,2.3378,2.3391,2.3414,2.3429,2.3435,2.3446,2.3462,2.3473,2.3486,2.3491,2.3501,2.3504,2.352,2.3513,2.3536,2.3527,2.3535,2.3541,2.3541,2.3544,2.3536,2.3552,2.3577,2.3581,2.3546,2.3546,2.3546,0,2.3387,2.341,2.3427,2.3434,2.3452,2.346,2.3468,2.3481,2.349,2.3503,2.351,2.3525,2.3533,2.3545,2.3553,2.3547,2.3576,2.3569,2.3581,2.3581,2.3587,2.3586,2.3615,2.3591,2.3591,2.3591,2.3591,0,2.3404,2.3419,2.3432,2.3443,2.346,2.3467,2.3484,2.3492,2.3504,2.3517,2.352,2.3533,2.3542,2.3556,2.3562,2.3581,2.3584,2.3589,2.359,2.3589,2.3589,2.3595,2.3594,2.3592,2.3591,2.3591,2.3591,0,2.3417,2.3426,2.3446,2.3462,2.3466,2.3478,2.3492,2.3503,2.3511,2.3528,2.3532,2.3544,2.3561,2.357,2.359,2.3595,2.3617,2.3617,2.3612,2.3613,2.3625,2.3624,2.3659,2.3665,2.3636,2.3636,2.3636,0,2.3428,2.3439,2.3457,2.3467,2.3475,2.3489,2.35,2.3508,2.3518,2.3536,2.3545,2.3563,2.3577,2.3604,2.3615,2.3631,2.3632,2.3644,2.3635,2.3634,2.3634,2.3634,2.3636,2.3645,2.3645,2.3646,2.3646,0,2.3447,2.3451,2.3465,2.3482,2.3494,2.3507,2.3521,2.3528,2.3539,2.3551,2.3568,2.358,2.3602,2.362,2.3637,2.3646,2.3648,2.3649,2.3652,2.3651,2.3649,2.3652,2.3618,2.3648,2.3647,2.3647,2.3647,2.3647,2.3459,2.3471,2.3486,2.3502,2.3513,2.3526,2.3538,2.3548,2.3563,2.3582,2.3586,2.3606,2.3621,2.3645,2.3654,2.367,2.3668,2.3673,2.3674,2.3676,2.3677,2.3646,2.3673,2.3673,2.3673,2.3673,2.3673,0,2.348,2.349,2.3505,2.3524,2.3538,2.3539,2.3554,2.3566,2.3583,2.3597,2.3611,2.3633,2.3651,2.3664,2.3682,2.3692,2.3694,2.3697,2.3696,2.3699,2.3677,2.3673,2.3695,2.3695,2.3695,2.3695,2.3695,2.3695,2.3492,2.3511,2.3518,2.3544,2.3554,2.3574,2.3583,2.3595,2.3607,2.3631,2.3646,2.3654,2.3669,2.3688,2.3705,2.3709,2.3716,2.3719,2.3723,2.3702,2.37,2.3698,2.3694,2.372,2.372,2.3743,2.3743,2.3744]}]]